Location: Newark
(58.9986°N, 38.5006°E)
Time: 06:31:12
(UTC+00:00)

SR - All Passes

Search period start: 20 April 2021 00:00
Search period end: 30 April 2021 00:00
Orbit: 573 x 882 km, 66.7° (Epoch: 19 April)

Date Brightness Start Highest point End Pass type
(mag) Time Alt. Az. Time Alt. Az. Time Alt. Az.
20 Apr - 03:23:00 10° ESE 03:23:58 10° E 03:24:58 10° E daylight
20 Apr - 04:59:16 10° S 05:04:36 40° ESE 05:10:07 10° NE daylight
20 Apr - 06:40:40 10° WSW 06:46:31 75° NW 06:52:30 10° NE daylight
20 Apr - 08:23:46 10° W 08:29:25 43° NNW 08:35:04 10° ENE daylight
20 Apr - 10:07:01 10° WNW 10:12:41 43° NNE 10:18:15 10° E daylight
20 Apr - 11:49:34 10° NW 11:55:34 77° NE 12:01:18 10° ESE daylight
20 Apr - 13:32:01 10° NW 13:37:26 38° WSW 13:42:34 10° S daylight
21 Apr - 04:10:27 10° SSE 04:15:09 27° ESE 04:20:00 10° ENE daylight
21 Apr - 05:50:49 10° SW 05:56:39 81° SE 06:02:38 10° NE daylight
21 Apr - 07:33:32 10° W 07:39:15 49° NNW 07:45:02 10° NE daylight
21 Apr - 09:16:53 10° WNW 09:22:30 40° N 09:28:01 10° ENE daylight
21 Apr - 10:59:40 10° NW 11:05:35 59° NNE 11:11:16 10° ESE daylight
21 Apr - 12:42:03 10° NW 12:47:51 57° SW 12:53:20 10° SSE daylight
21 Apr - 14:25:20 10° WNW 14:28:51 17° WSW 14:32:17 10° SW daylight
22 Apr - 03:22:18 10° SE 03:25:52 17° ESE 03:29:30 10° ENE daylight
22 Apr - 05:01:15 10° SSW 05:06:54 57° SE 05:12:45 10° NE daylight
22 Apr - 06:43:21 10° WSW 06:49:11 60° NNW 06:55:05 10° NE daylight
22 Apr - 08:26:40 10° WNW 08:32:16 40° N 08:37:50 10° ENE daylight
22 Apr - 10:09:43 10° NW 10:15:30 48° NNE 10:21:07 10° E daylight
22 Apr - 11:52:09 10° NW 11:58:07 82° SW 12:03:47 10° SE daylight
22 Apr - 13:34:49 10° WNW 13:39:35 26° WSW 13:44:08 10° SSW daylight
23 Apr - 04:12:01 10° S 04:17:19 39° ESE 04:22:47 10° NE daylight
23 Apr - 05:53:19 10° SW 05:59:12 77° NW 06:05:11 10° NE daylight
23 Apr - 07:36:24 10° W 07:42:04 43° NNW 07:47:43 10° ENE daylight
23 Apr - 09:19:40 10° WNW 09:25:20 42° NNE 09:30:53 10° E daylight
23 Apr - 11:02:16 10° NW 11:08:14 75° NE 11:13:57 10° ESE daylight
23 Apr - 12:44:41 10° NW 12:50:08 40° WSW 12:55:18 10° S daylight
23 Apr - 14:30:21 10° W 14:30:44 10° W 14:31:06 10° WSW daylight
24 Apr - 03:23:14 10° SSE 03:27:53 25° ESE 03:32:39 10° ENE daylight
24 Apr - 05:03:30 10° SW 05:09:20 79° SE 05:15:19 10° NE daylight
24 Apr - 06:46:09 10° W 06:51:55 50° NNW 06:57:42 10° NE daylight
24 Apr - 08:29:31 10° WNW 08:35:08 40° N 08:40:38 10° ENE daylight
24 Apr - 10:12:21 10° NW 10:18:15 58° NNE 10:23:54 10° ESE daylight
24 Apr - 11:54:43 10° NW 12:00:33 59° SW 12:06:03 10° SSE daylight
24 Apr - 13:37:56 10° WNW 13:41:36 17° WSW 13:45:08 10° SW daylight
25 Apr - 02:35:11 10° SE 02:38:36 16° ESE 02:42:05 10° ENE daylight
25 Apr - 04:13:57 10° SSW 04:19:36 55° SE 04:25:25 10° NE daylight
25 Apr - 05:55:59 10° WSW 06:01:50 61° NNW 06:07:45 10° NE daylight
25 Apr - 07:39:18 10° WNW 07:44:55 40° N 07:50:28 10° ENE daylight
25 Apr - 09:22:23 10° NW 09:28:09 48° NNE 09:33:44 10° E daylight
25 Apr - 11:04:50 10° NW 11:10:48 84° SW 11:16:27 10° SE daylight
25 Apr - 12:47:29 10° WNW 12:52:19 27° WSW 12:56:54 10° S daylight
26 Apr - 03:24:46 10° S 03:30:02 37° ESE 03:35:27 10° NE daylight
26 Apr - 05:05:58 10° SW 05:11:52 80° NW 05:17:52 10° NE daylight
26 Apr - 06:49:03 10° W 06:54:43 44° NNW 07:00:22 10° ENE daylight
26 Apr - 08:32:19 10° WNW 08:38:00 42° N 08:43:29 10° E daylight
26 Apr - 10:14:57 10° NW 10:20:55 73° NE 10:26:35 10° ESE daylight
26 Apr - 11:57:22 10° NW 12:02:51 41° WSW 12:08:02 10° S daylight
26 Apr - 13:42:17 10° W 13:43:28 11° W 13:44:39 10° WSW daylight
27 Apr - 02:36:03 10° SSE 02:40:37 24° ESE 02:45:17 10° ENE daylight
27 Apr - 04:16:11 10° SW 04:22:01 76° SE 04:28:00 10° NE daylight
27 Apr - 05:58:48 10° W 06:04:34 51° NNW 06:10:21 10° NE daylight
27 Apr - 07:42:11 10° WNW 07:47:46 40° N 07:53:16 10° ENE daylight
27 Apr - 09:25:01 10° NW 09:30:54 56° NNE 09:36:32 10° ESE daylight
27 Apr - 11:07:25 10° NW 11:13:14 62° SW 11:18:44 10° SSE daylight
27 Apr - 12:50:33 10° WNW 12:54:19 18° WSW 12:57:58 10° SSW daylight
28 Apr - 01:48:05 10° SE 01:51:21 15° ESE 01:54:39 10° ENE daylight
28 Apr - 03:26:40 10° SSW 03:32:19 53° SE 03:38:05 10° NE daylight
28 Apr - 05:08:38 10° WSW 05:14:30 63° NNW 05:20:25 10° NE daylight
28 Apr - 06:51:57 10° WNW 06:57:33 41° N 07:03:06 10° ENE daylight
28 Apr - 08:35:03 10° NW 08:40:48 47° NNE 08:46:21 10° E daylight
28 Apr - 10:17:31 10° NW 10:23:29 87° SW 10:29:06 10° SE daylight
28 Apr - 12:00:08 10° WNW 12:05:01 28° WSW 12:09:40 10° S daylight
29 Apr - 02:37:31 10° S 02:42:45 36° ESE 02:48:06 10° NE daylight
29 Apr - 04:18:38 10° SW 04:24:32 82° NW 04:30:32 10° NE daylight
29 Apr - 06:01:40 10° W 06:07:21 44° NNW 06:13:00 10° ENE daylight
29 Apr - 07:44:58 10° WNW 07:50:38 42° N 07:56:07 10° E daylight
29 Apr - 09:27:37 10° NW 09:33:35 71° NE 09:39:13 10° ESE daylight
29 Apr - 11:10:03 10° NW 11:15:33 43° WSW 11:20:45 10° SSE daylight
29 Apr - 12:54:36 10° W 12:56:13 11° W 12:57:49 10° WSW daylight
